Other Public Products
Issued by NWS Charleston, SC

Current Version | Previous Version | Text Only | Print | Product List | Glossary Off
Versions: 1 2 3 4 5 6 7 8 9 10 11 12 13 14 15 16 17 18 19 20 21 22 23 24 25 26 27 28 29 30 31 32 33 34 35 36 37 38 39 40 41 42 43 44 45 46 47 48 49 50

000
FPUS82 KCHS 200712
OPUCHS

TEST...KCHS/KSAV Gateway Observations...TEST
National Weather Service Charleston SC
300 AM EDT THU JUL 20 2017

NOTE: "fair" indicates few or no clouds below 12,000 feet with no
significant weather and/or obstructions to visibility.

SCZ050-WAZ558-NCZ071-TXZ119-213-PAZ071-DCZ001-FLZ074-172-MI076-
NYZ176-178-MAZ016-IL014-TNZ027-NJZ106-GAZ044-MD014-200800-

...Gateway Observations for Charleston International...

CITY           SKY/WX    TMP DP  RH WIND       PRES   REMARKS
Chas Airport   CLEAR     72  70  93 CALM      30.07F
Seattle        MOCLDY    62  54  74 SW9       30.05R
Charlotte      PTCLDY    72  67  84 SW3       30.10F
Dallas DFW     CLEAR     83  71  67 SE6       30.06S
Dallas Love    CLEAR     86  71  60 S13       30.07R HX  91
Philladelphia  PTCLDY    81  74  79 SW7       30.00S
Wash National  MOCLDY    81  76  84 S5        30.02F
Baltimore      PTCLDY    78  74  87 W3        30.01S
Miami          MOCLDY    83  76  79 E3        30.05F HX  91
Detroit        CLOUDY    74  71  91 SE5       30.02F
Newark         PTCLDY    81  70  69 W5        29.97F
Laguardia      MOCLDY    80  73  79 CALM      29.96F
J F K          MOCLDY    82  74  76 NW3       29.98F
Boston Logan   CLEAR     76  63  64 W3        29.94S
Ft. Lauderdale MOCLDY    82  76  81 SE5       30.04F
Chicago O`Hare CLOUDY    70  67  90 SW5       30.00R
Chicago Midway CLOUDY    72  68  87 S8        30.00R
Houston Bush   PTCLDY    81  75  82 S3        30.09R
Houston Hobby  PTCLDY    81  75  82 SW3       30.08S
Nashville      PTCLDY    75  73  93 CALM      30.12F
Atlanta        PTCLDY    77  71  82 W3        30.10F

$$

GAZ044-118-TXZ119-213-NCZ071-DCZ001-MDZ014-506-PAZ021-071-NJZ106-
NYZ176-178-MAZ106-OHZ011-021-055-MIZ076-KYZ091-ILZ014-INZ047-
MNZ060-ONZ431-200800-

...Gateway Observations for Savannah International...

CITY           SKY/WX    TMP DP  RH WIND       PRES   REMARKS
Savannah Arpt  CLEAR     74  72  93 CALM      30.08F
Atlanta        PTCLDY    77  71  82 W3        30.10F
Charlotte      PTCLDY    72  67  84 SW3       30.10F
Dallas DFW     CLEAR     83  71  67 SE6       30.06S
Houston Bush   PTCLDY    81  75  82 S3        30.09R
Wash National  MOCLDY    81  76  84 S5        30.02F
Wash Dulles    PTCLDY    76  72  87 NW3       30.02F
Baltimore      PTCLDY    78  74  87 W3        30.01S
Philadelphia   PTCLDY    81  74  79 SW7       30.00S
Newark         PTCLDY    81  70  69 W5        29.97F
Laguardia      MOCLDY    80  73  79 CALM      29.96F
J F K          MOCLDY    82  74  76 NW3       29.98F
Boston         CLEAR     76  63  64 W3        29.94S
Pittsburg      PTCLDY    74  69  85 CALM      30.07F
Akron          PTCLDY    72  66  81 CALM      30.07F
Cleveland      CLOUDY    77  66  68 SW6       30.05F
Cincinnati     CLEAR     73  71  93 CALM      30.10F
Columbus       CLEAR     70  69  99 S3        30.07F
Detroit        CLOUDY    74  71  91 SE5       30.02F
Chicago O`Hare CLOUDY    70  67  90 SW5       30.00R
Minneapolis    CLOUDY    70  68  93 W3        29.92F FOG
Indianapolis   PTCLDY    75  72  90 S6        30.07F
Toronto Canada MOCLDY    64  57  77 NW7       30.00F

$$




USA.gov is the U.S. government's official web portal to all federal, state and local government web resources and services.